[Iaude] MPEC C176: 2024 CR5 [a=1.14,e=0.37,i=17.8,H=25.5]

mpec at cfa.harvard.edu mpec at cfa.harvard.edu
Wed Feb 14 19:39:01 EST 2024


M.P.E.C. 2024-C176                            Issued 2024 February 15, 00:37 UT

     The Minor Planet Electronic Circulars contain information on unusual
         minor planets, routine data on comets and natural satellites,
         and occasional editorial announcements.  They are published
    on behalf of Division F of the International Astronomical Union by the
          Minor Planet Center, Smithsonian Astrophysical Observatory,
                          Cambridge, MA 02138, U.S.A.
			  
             Prepared using the Tamkin Foundation Computer Network

                              MPC at CFA.HARVARD.EDU
            URL https://www.minorplanetcenter.net/    ISSN 1523-6714

                                    2024 CR5                                    


Observations:
     K24C05R  C2024 02 12.51524909 08 10.514+19 09 37.51         20.49GVEC176F52
     K24C05R  C2024 02 12.52690309 08 06.550+19 13 26.96         20.28GVEC176F52
     K24C05R  C2024 02 12.53856709 08 02.603+19 17 16.96         20.17GVEC176F52
     K24C05R  C2024 02 12.55021209 07 58.718+19 21 07.12         19.78GVEC176F52
     K24C05R* C2024 02 13.93303 08 59 57.04 +28 03 46.6          20.3 GVEC176K88
     K24C05R  C2024 02 13.93601 08 59 55.58 +28 05 01.7          20.2 GVEC176K88
     K24C05R  C2024 02 13.93898 08 59 54.07 +28 06 18.0          20.3 GVEC176K88
     K24C05R KC2024 02 13.95288308 59 47.44 +28 12 13.9          20.4 RoEC176K88
     K24C05R KC2024 02 13.95619108 59 45.79 +28 13 38.5                oEC176K88
     K24C05R KC2024 02 13.95737108 59 45.23 +28 14 09.4          20.1 RoEC176K88
     K24C05R KB2024 02 13.99390108 59 30.49 +28 30 05.6          19.6 GXEC176958
     K24C05R KB2024 02 13.99796608 59 28.58 +28 31 49.5          19.4 GXEC176958
     K24C05R KB2024 02 14.00200708 59 26.57 +28 33 34.2          19.5 GXEC176958
     K24C05R KB2024 02 14.00603408 59 24.55 +28 35 17.6          20.0 GXEC176958
     K24C05R KB2024 02 14.01009608 59 22.51 +28 37 03.0          19.5 GXEC176958
     K24C05R KB2024 02 14.01416508 59 20.41 +28 38 49.0          19.7 GXEC176958
     K24C05R KC2024 02 14.05799 08 58 57.32 +28 57 38.8          18.8 GVEC176104
     K24C05R KC2024 02 14.06370 08 58 54.47 +29 00 06.6          18.7 GVEC176104
     K24C05R KC2024 02 14.06952 08 58 51.68 +29 02 38.3                VEC176104
     K24C05R KC2024 02 14.11446208 58 29.87 +29 22 01.8          19.6 GVEC176L01
     K24C05R KC2024 02 14.11594608 58 29.18 +29 22 40.3          19.9 GVEC176L01
     K24C05R KC2024 02 14.11755108 58 28.42 +29 23 22.1          19.7 GVEC176L01
     K24C05R KC2024 02 14.18016208 58 13.74 +29 51 58.0          19.9 GXEC176858
     K24C05R KC2024 02 14.18584008 58 10.85 +29 54 31.1          19.8 GXEC176858
     K24C05R KC2024 02 14.19177308 58 07.75 +29 57 10.9          19.9 GXEC176858
     K24C05R KB2024 02 14.21691 08 57 52.61 +30 08 22.5          19.8 GVEC176734
     K24C05R KB2024 02 14.22757 08 57 46.97 +30 13 09.1          20.0 GVEC176734
     K24C05R KB2024 02 14.23810 08 57 41.36 +30 17 53.3          19.9 GVEC176734
     K24C05R KB2024 02 14.24849 08 57 35.84 +30 22 34.4          19.9 GVEC176734
     K24C05R KC2024 02 14.92066508 51 44.20 +35 41 26.4                VEC176204
     K24C05R KC2024 02 14.92993208 51 38.14 +35 46 04.4                VEC176204
     K24C05R KC2024 02 14.93858808 51 32.37 +35 50 26.2          20.0 GVEC176203
     K24C05R KC2024 02 14.93976508 51 31.69 +35 51 00.3          20.3 GVEC176204
     K24C05R KC2024 02 14.95252208 51 21.43 +35 57 15.6          19.6 RoEC176K88
     K24C05R KC2024 02 14.95548808 51 19.44 +35 58 44.0          19.6 RoEC176K88
     K24C05R KC2024 02 14.95845308 51 17.45 +36 00 13.6          19.8 RoEC176K88
     K24C05R KC2024 02 14.97393908 51 09.02 +36 08 09.2          20.2 GVEC176203

Observer details:
104 San Marcello Pistoiese.  Observers P. Bacci, M. Maestripieri.  Measurer P.
    Bacci.  0.60-m f/4.0 reflector + CCD.
203 GiaGa Observatory.  Observer G. Galli.  0.36-m f/5.76 Schmidt-Cassegrain +
    CCD.
204 Schiaparelli Observatory.  Observer L. Buzzi.  0.84-m f/3.5 reflector +
    CMO.
734 Farpoint Observatory, Eskridge.  Observers D. Cromer, G. Hug, D. Goodin,
    R. Valentine.  Measurer D. Cromer.  0.69-m f/3.54 reflector + CMO.
858 Tebbutt Observatory, Edgewood.  Observer F. B. Zoltowski.  0.51-m f/8.1
    Schmidt-Cassegrain + CCD.
958 Observatoire de Dax.  Observer P. Dupouy.  0.50-m f/4.5 Reflector + CMO.
F52 Pan-STARRS 2, Haleakala.  Observers J. Herman, T. Lowe, P. Minguez, A.
    Schultz, I. Smith.  Measurers K. Chambers, T. de Boer, J. Fairlamb, H.
    Gao, M. Huber, C.-C. Lin, E. Magnier, Y. Ramanjooloo, R. Wainscoat, R.
    Weryk.  1.8-m Ritchey-Chretien + CCD.
K88 GINOP-KHK, Piszkesteto.  Observer K. Sarneczky.  0.60-m Schmidt + CCD.
L01 Visnjan Observatory, Tican.  Observer K. Korlevic.  1.0-m f/2.9 reflector
    + CCD.

Orbital elements:
2024 CR5                                                 Earth MOID = 0.0385 AU
Epoch 2024 Mar. 31.0 TT = JDT 2460400.5                 Bell                    
M 341.52138              (2000.0)            P               Q                  
n   0.81433196     Peri.  100.19732     -0.43828323     +0.87888092             
a   1.1357125      Node   141.94365     -0.89676290     -0.41333644             
e   0.3677739      Incl.   17.79116     -0.06102552     -0.23816239             
P   1.21           H   25.53          G   0.15           U   8                  
Residuals in seconds of arc
240212 F52  0.0   0.1-    240214 958  0.1-  1.1-    240214 734  0.0   0.2-
240212 F52  0.0   0.1-    240214 958  0.5-  0.8-    240214 734  0.0   0.0
240212 F52  0.1-  0.1-    240214 958  1.7-  0.2-    240214 734  0.4+  0.7+
240212 F52  0.2+  0.2+    240214 104  0.1+  0.2+    240214 204  0.2+  0.0
240213 K88  0.8+  1.3+    240214 104  0.7-  0.1-    240214 204  0.2+  0.3-
240213 K88  0.4+  0.1+    240214 104  0.1-  0.5+    240214 203  0.5-  0.4+
240213 K88  0.7-  0.3+    240214 L01  0.0   0.0     240214 204  0.2+  0.2+
240213 K88  0.0   0.4-    240214 L01  0.2+  0.2-    240214 K88  0.6+  0.2-
240213 K88  0.8-  0.7-    240214 L01  0.3+  0.3-    240214 K88  0.1+  0.7-
240213 K88  0.6-  0.1-    240214 858  0.3-  0.4-    240214 K88  0.4-  0.0
240213 958  0.6-  0.8+    240214 858  0.3+  0.4-    240214 203  0.0   0.4+
240213 958  0.6+  0.4-    240214 858  0.1+  0.5-
240214 958  0.4+  0.3-    240214 734  0.1-  0.5+

Ephemeris:
2024 CR5                 a,e,i = 1.14, 0.37, 18                  q = 0.7180
Date    TT    R. A. (2000) Decl.     Delta      r    Elong.  Phase     V
2024 01 16    09 33 20.6 -13 51 32   0.2897  1.2102   136.5    34.1    24.7
...
2024 01 31    09 31 10.3 -08 56 30   0.1552  1.1240   151.6    24.7    22.9
...
2024 02 08    09 22 10.0 +02 17 53   0.09105 1.0752   167.0    11.9    21.2
...
2024 02 14    08 59 29.0 +28 33 05   0.05295 1.0377   161.2    17.8    20.2
2024 02 15    08 50 55.8 +36 21 22   0.04882 1.0313   153.1    25.7    20.2
2024 02 16    08 38 39.5 +45 18 24   0.04582 1.0250   143.6    34.9    20.3
...
2024 02 22    00 07 03.3 +73 49 01   0.05646 0.9868    86.1    90.6    22.5
...
2024 03 01    22 13 49.6 +48 49 25   0.1090  0.9359    56.9   117.5    25.2
...
2024 03 16    22 00 38.0 +34 07 48   0.2261  0.8445    43.3   126.1    27.3

M. P. C. Staff               (C) Copyright 2024 MPC           M.P.E.C. 2024-C176





More information about the Iaude mailing list